E22ZMG-1 Weather Reports


Display with metric or nautical units.
time (UTC)temp
F
wind
direction
speed
MPH
gust
MPH
rain 1hr
in
rain 24hr
in
rain mn
in
humidity
%
barometer
mb
20260510112012 96 0 0.0 0.0 0.00 0.00 0.00 51 974.0
20260510110948 96 0 0.0 0.0 0.00 0.00 0.00 51 974.0
20260510105923 95 0 0.0 0.0 0.00 0.00 0.00 52 973.0
20260510104857 96 0 0.0 0.0 0.00 0.00 0.00 52 973.0
20260510103832 94 0 0.0 0.0 0.00 0.00 0.00 54 973.0
20260510102807 95 0 0.0 0.0 0.00 0.00 0.00 52 973.0
20260510101741 96 0 0.0 0.0 0.00 0.00 0.00 52 973.0
20260510100716 95 0 0.0 0.0 0.00 0.00 0.00 51 973.0
20260510095652 97 0 0.0 0.0 0.00 0.00 0.00 50 972.0
20260510094626 97 0 0.0 0.0 0.00 0.00 0.00 50 972.0
20260510093601 96 0 0.0 0.0 0.00 0.00 0.00 52 972.0
20260510092536 94 0 0.0 0.0 0.00 0.00 0.00 52 972.0
20260510091512 97 0 0.0 0.0 0.00 0.00 0.00 49 972.0
20260510090447 96 0 0.0 0.0 0.00 0.00 0.00 50 972.0
20260510085422 98 0 0.0 0.0 0.00 0.00 0.00 48 972.0
20260510084355 99 0 0.0 0.0 0.00 0.00 0.00 46 972.0
20260510083330 98 0 0.0 0.0 0.00 0.00 0.00 47 972.0
20260510082307 99 0 0.0 0.0 0.00 0.00 0.00 46 972.0
20260510081240 101 0 0.0 0.0 0.00 0.00 0.00 45 972.0
20260510080215 99 0 0.0 0.0 0.00 0.00 0.00 46 972.0
20260510075149 97 0 0.0 0.0 0.00 0.00 0.00 48 972.0
20260510074125 98 0 0.0 0.0 0.00 0.00 0.00 46 972.0
20260510073100 98 0 0.0 0.0 0.00 0.00 0.00 47 972.0
20260510072036 101 0 0.0 0.0 0.00 0.00 0.00 44 972.0
20260510071012 103 0 0.0 0.0 0.00 0.00 0.00 39 973.0
20260510065945 103 0 0.0 0.0 0.00 0.00 0.00 38 973.0
20260510064919 104 0 0.0 0.0 0.00 0.00 0.00 37 973.0
20260510063855 104 0 0.0 0.0 0.00 0.00 0.00 38 973.0
20260510062829 104 0 0.0 0.0 0.00 0.00 0.00 38 973.0
20260510061805 103 0 0.0 0.0 0.00 0.00 0.00 38 974.0
20260510060739 102 0 0.0 0.0 0.00 0.00 0.00 39 974.0
20260510055714 101 0 0.0 0.0 0.00 0.00 0.00 40 974.0
20260510054649 100 0 0.0 0.0 0.00 0.00 0.00 41 974.0
20260510053625 102 0 0.0 0.0 0.00 0.00 0.00 40 975.0
20260510052600 102 0 0.0 0.0 0.00 0.00 0.00 42 975.0
20260510051534 102 0 0.0 0.0 0.00 0.00 0.00 42 975.0
20260510050509 101 0 0.0 0.0 0.00 0.00 0.00 43 975.0
20260510045445 101 0 0.0 0.0 0.00 0.00 0.00 44 975.0
20260510044419 99 0 0.0 0.0 0.00 0.00 0.00 46 976.0
20260510043354 101 0 0.0 0.0 0.00 0.00 0.00 44 976.0
20260510042329 98 0 0.0 0.0 0.00 0.00 0.00 47 976.0
20260510041303 98 0 0.0 0.0 0.00 0.00 0.00 48 976.0
20260510040238 96 0 0.0 0.0 0.00 0.00 0.00 50 976.0
20260510035212 97 0 0.0 0.0 0.00 0.00 0.00 50 976.0
20260510034147 97 0 0.0 0.0 0.00 0.00 0.00 50 976.0
20260510033122 96 0 0.0 0.0 0.00 0.00 0.00 51 976.0
20260510032055 96 0 0.0 0.0 0.00 0.00 0.00 50 976.0
20260510031029 95 0 0.0 0.0 0.00 0.00 0.00 51 977.0
20260510030004 96 0 0.0 0.0 0.00 0.00 0.00 51 977.0
20260510025502 95 0 0.0 0.0 0.00 0.00 0.00 51 977.0
20260510024435 95 0 0.0 0.0 0.00 0.00 0.00 53 977.0
20260510023409 92 0 0.0 0.0 0.00 0.00 0.00 56 977.0
20260510022343 95 0 0.0 0.0 0.00 0.00 0.00 52 977.0
20260510021317 94 0 0.0 0.0 0.00 0.00 0.00 54 977.0
20260510020534 94 0 0.0 0.0 0.00 0.00 0.00 55 977.0
20260510015509 92 0 0.0 0.0 0.00 0.00 0.00 57 977.0
20260510014443 92 0 0.0 0.0 0.00 0.00 0.00 58 977.0
20260510013416 91 0 0.0 0.0 0.00 0.00 0.00 59 977.0
20260510012350 90 0 0.0 0.0 0.00 0.00 0.00 60 977.0
20260510011326 90 0 0.0 0.0 0.00 0.00 0.00 61 977.0
20260510010300 90 0 0.0 0.0 0.00 0.00 0.00 62 977.0
20260510005236 89 0 0.0 0.0 0.00 0.00 0.00 63 977.0
20260510004211 88 0 0.0 0.0 0.00 0.00 0.00 64 977.0
20260510003146 88 0 0.0 0.0 0.00 0.00 0.00 65 977.0
20260510002122 88 0 0.0 0.0 0.00 0.00 0.00 66 977.0
20260510001057 88 0 0.0 0.0 0.00 0.00 0.00 66 976.0
20260510000030 88 0 0.0 0.0 0.00 0.00 0.00 66 976.0
20260509235002 88 0 0.0 0.0 0.00 0.00 0.00 66 976.0
20260509233937 87 0 0.0 0.0 0.00 0.00 0.00 68 976.0
20260509232912 87 0 0.0 0.0 0.00 0.00 0.00 67 976.0
20260509231847 88 0 0.0 0.0 0.00 0.00 0.00 66 976.0
20260509230823 88 0 0.0 0.0 0.00 0.00 0.00 67 975.0
20260509225757 86 0 0.0 0.0 0.00 0.00 0.00 72 975.0
20260509224731 87 0 0.0 0.0 0.00 0.00 0.00 68 975.0
20260509223706 88 0 0.0 0.0 0.00 0.00 0.00 67 975.0
20260509222641 88 0 0.0 0.0 0.00 0.00 0.00 68 975.0
20260509221615 87 0 0.0 0.0 0.00 0.00 0.00 68 975.0
20260509221137 87 0 0.0 0.0 0.00 0.00 0.00 68 975.0
20260509220113 88 0 0.0 0.0 0.00 0.00 0.00 67 975.0
20260509215048 88 0 0.0 0.0 0.00 0.00 0.00 66 975.0
20260509214023 88 0 0.0 0.0 0.00 0.00 0.00 67 975.0
20260509212957 87 0 0.0 0.0 0.00 0.00 0.00 67 975.0
20260509211932 87 0 0.0 0.0 0.00 0.00 0.00 68 974.0
20260509210906 87 0 0.0 0.0 0.00 0.00 0.00 68 974.0
20260509205841 87 0 0.0 0.0 0.00 0.00 0.00 67 975.0
20260509204006 87 0 0.0 0.0 0.00 0.00 0.00 68 975.0
20260509202940 88 0 0.0 0.0 0.00 0.00 0.00 67 975.0
20260509201915 87 0 0.0 0.0 0.00 0.00 0.00 67 975.0
20260509200851 88 0 0.0 0.0 0.00 0.00 0.00 65 975.0
20260509195826 89 0 0.0 0.0 0.00 0.00 0.00 65 975.0
20260509194801 88 0 0.0 0.0 0.00 0.00 0.00 66 975.0
20260509193735 89 0 0.0 0.0 0.00 0.00 0.00 64 975.0
20260509192711 89 0 0.0 0.0 0.00 0.00 0.00 64 975.0
20260509191646 89 0 0.0 0.0 0.00 0.00 0.00 64 975.0
20260509190621 89 0 0.0 0.0 0.00 0.00 0.00 64 975.0
20260509185555 89 0 0.0 0.0 0.00 0.00 0.00 64 976.0
20260509184530 90 0 0.0 0.0 0.00 0.00 0.00 63 976.0
20260509183505 90 0 0.0 0.0 0.00 0.00 0.00 63 976.0
20260509182440 89 0 0.0 0.0 0.00 0.00 0.00 65 976.0
20260509181415 88 0 0.0 0.0 0.00 0.00 0.00 65 976.0
20260509180350 88 0 0.0 0.0 0.00 0.00 0.00 64 976.0
20260509175325 90 0 0.0 0.0 0.00 0.00 0.00 62 976.0
20260509174259 89 0 0.0 0.0 0.00 0.00 0.00 62 976.0
20260509173234 90 0 0.0 0.0 0.00 0.00 0.00 62 976.0
20260509172209 90 0 0.0 0.0 0.00 0.00 0.00 62 976.0
20260509171144 90 0 0.0 0.0 0.00 0.00 0.00 61 976.0
20260509170118 89 0 0.0 0.0 0.00 0.00 0.00 63 976.0
20260509165054 91 0 0.0 0.0 0.00 0.00 0.00 61 977.0
20260509164029 89 0 0.0 0.0 0.00 0.00 0.00 63 977.0
20260509163003 90 0 0.0 0.0 0.00 0.00 0.00 63 977.0
20260509161938 89 0 0.0 0.0 0.00 0.00 0.00 64 977.0
20260509160912 88 0 0.0 0.0 0.00 0.00 0.00 66 977.0
20260509155847 87 0 0.0 0.0 0.00 0.00 0.00 66 977.0
20260509154822 87 0 0.0 0.0 0.00 0.00 0.00 66 977.0
20260509153758 87 0 0.0 0.0 0.00 0.00 0.00 66 977.0
20260509152733 89 0 0.0 0.0 0.00 0.00 0.00 63 977.0
20260509151707 88 0 0.0 0.0 0.00 0.00 0.00 63 977.0
20260509150642 89 0 0.0 0.0 0.00 0.00 0.00 63 977.0
20260509145617 89 0 0.0 0.0 0.00 0.00 0.00 62 977.0
20260509144553 89 0 0.0 0.0 0.00 0.00 0.00 61 976.0
20260509143527 89 0 0.0 0.0 0.00 0.00 0.00 61 976.0
20260509142503 89 0 0.0 0.0 0.00 0.00 0.00 62 976.0
20260509141437 89 0 0.0 0.0 0.00 0.00 0.00 61 976.0
20260509140412 89 0 0.0 0.0 0.00 0.00 0.00 61 976.0
20260509135347 90 0 0.0 0.0 0.00 0.00 0.00 60 976.0
20260509134321 90 0 0.0 0.0 0.00 0.00 0.00 59 976.0
20260509133256 88 0 0.0 0.0 0.00 0.00 0.00 62 976.0
20260509132232 88 0 0.0 0.0 0.00 0.00 0.00 62 975.0
20260509131206 89 0 0.0 0.0 0.00 0.00 0.00 61 975.0
20260509130142 89 0 0.0 0.0 0.00 0.00 0.00 62 975.0
20260509125117 88 0 0.0 0.0 0.00 0.00 0.00 63 975.0
20260509124051 89 0 0.0 0.0 0.00 0.00 0.00 61 975.0
20260509123026 90 0 0.0 0.0 0.00 0.00 0.00 60 975.0
20260509122001 90 0 0.0 0.0 0.00 0.00 0.00 60 975.0
20260509120937 90 0 0.0 0.0 0.00 0.00 0.00 58 975.0
20260509115909 90 0 0.0 0.0 0.00 0.00 0.00 59 974.0
20260509114501 90 0 0.0 0.0 0.00 0.00 0.00 59 974.0
20260509113435 90 0 0.0 0.0 0.00 0.00 0.00 57 974.0